CDT,Max TemperatureF,Mean TemperatureF,Min TemperatureF,Max Dew PointF,MeanDew PointF,Min DewpointF,Max Humidity, Mean Humidity, Min Humidity, Max Sea Level PressureIn, Mean Sea Level PressureIn, Min Sea Level PressureIn, Max VisibilityMiles, Mean VisibilityMiles, Min VisibilityMiles, Max Wind SpeedMPH, Mean Wind SpeedMPH, Max Gust SpeedMPH,PrecipitationIn, CloudCover, Events, WindDirDegrees
2011-10-1,77,62,46,36,34,30,61,41,21,30.27,30.21,30.15,10,10,10,18,11,26,0.00,0,,168
2011-10-2,82,64,45,39,36,33,70,45,20,30.20,30.14,30.07,10,10,10,21,11,28,0.00,0,,169
2011-10-3,84,67,49,45,41,37,66,45,23,30.11,30.07,30.02,10,10,10,20,11,26,0.00,0,,147
2011-10-4,90,72,54,45,43,39,61,39,17,30.06,30.01,29.94,10,10,10,24,14,31,0.00,0,,168
2011-10-5,83,69,55,43,40,36,61,41,20,30.02,29.94,29.87,10,10,10,30,17,38,0.00,0,,166
2011-10-6,81,68,54,55,47,42,83,59,35,29.89,29.78,29.68,10,10,7,38,24,53,0.06,2,Rain,156
2011-10-7,82,73,64,64,57,43,73,55,37,29.87,29.81,29.71,10,9,1,31,18,41,0.30,6,Rain-Thunderstorm,182
2011-10-8,71,65,59,60,57,53,90,74,57,30.09,29.98,29.86,10,9,2,25,10,33,0.88,7,Rain-Thunderstorm,169
2011-10-9,63,58,53,59,56,51,93,92,90,30.11,30.06,29.98,10,9,5,18,7,25,0.19,8,Rain,159
2011-10-10,70,60,49,52,49,46,96,70,44,30.05,30.00,29.91,10,10,7,16,8,23,0.00,3,,184
2011-10-11,69,60,50,56,53,48,96,78,59,29.90,29.80,29.71,10,7,1,14,7,17,0.72,5,Rain-Thunderstorm,179
2011-10-12,71,59,46,54,47,39,100,70,40,29.92,29.76,29.70,10,4,0,29,12,39,0.00,2,Fog,298
2011-10-13,74,58,42,39,35,28,76,48,19,29.95,29.90,29.82,10,10,9,23,12,26,0.00,0,,301
2011-10-14,64,51,38,37,31,25,67,45,23,30.10,30.03,29.92,10,10,7,23,9,29,0.00,1,,322
2011-10-15,77,57,37,45,38,31,76,52,27,30.10,29.93,29.71,10,10,10,26,12,33,0.00,0,,218
2011-10-16,63,52,41,45,36,30,76,53,30,30.14,30.03,29.71,10,10,10,23,9,31,0.00,0,,350
2011-10-17,51,47,43,42,39,35,86,74,61,30.16,30.08,30.00,10,10,8,18,8,23,0.03,7,Rain,350
2011-10-18,55,46,36,38,29,24,85,58,30,30.21,30.16,30.09,10,10,10,30,14,38,0.00,1,,329
2011-10-19,52,39,25,31,25,21,85,58,30,30.22,30.16,30.12,10,10,10,23,10,30,0.00,1,,350
2011-10-20,56,39,22,30,25,19,92,64,35,30.17,30.12,30.03,10,10,10,9,4,15,0.00,0,,295
2011-10-21,76,56,35,40,33,29,76,49,21,30.11,30.08,30.04,10,10,10,12,6,16,0.00,0,,277
2011-10-22,60,49,38,44,39,36,86,66,46,30.14,30.08,30.04,10,10,10,17,6,21,T,3,Rain,70
2011-10-23,76,56,36,44,37,31,92,56,20,30.06,30.00,29.94,10,10,7,22,7,28,0.00,0,,259
2011-10-24,80,59,37,42,38,33,85,55,25,30.11,29.95,29.73,10,10,10,17,9,24,0.00,0,,183
2011-10-25,66,55,43,41,39,36,76,57,37,30.12,29.84,29.63,10,10,10,31,15,38,0.00,0,,324
2011-10-26,47,41,35,40,34,30,76,65,53,30.23,30.17,30.09,10,10,10,21,13,28,0.02,7,Rain,343
2011-10-27,55,41,26,29,24,16,85,54,22,30.22,30.18,30.12,10,10,10,16,9,23,0.00,0,,254
2011-10-28,58,43,27,29,24,22,81,53,25,30.29,30.22,30.16,10,10,10,18,8,32,0.00,1,,288
2011-10-29,65,49,33,36,29,25,70,50,29,30.15,29.95,29.78,10,10,10,18,10,24,0.00,0,,208
2011-10-30,61,46,30,32,23,11,65,40,14,30.13,30.07,29.92,10,10,10,28,14,35,0.00,0,,299
2011-10-31,72,49,26,34,26,21,75,48,20,30.12,29.99,29.86,10,10,10,21,10,28,0.00,0,,199